Wadesboro, NC

3:25 AM EDT on May 25, 2017 (GMT -0400)
Anson County

Weather History for KAFP - January, 2013

Change the Weather History Date:

Wednesday, January 2, 2013

  Actual Average (KCLT) Record (KCLT)
Temperature  
Mean Temperature 48 °F -  
Max Temperature 51 °F 50 °F 78 °F (1952)
Min Temperature 44 °F 32 °F 6 °F (1928)
Degree Days  
Heating Degree Days 17    
Moisture  
Dew Point 45 °F    
Average Humidity 87    
Maximum Humidity 98    
Minimum Humidity 67    
Precipitation  
Precipitation 0.28 in - - ()
Sea Level Pressure  
Sea Level Pressure 30.05 in    
Wind  
Wind Speed 2 mph (NNE)    
Max Wind Speed 15 mph    
Max Gust Speed 20 mph    
Visibility 7 miles    
Events Rain    
Averages and records for this station are not official NWS values.
T = Trace of Precipitation, MM = Missing Value Source: NWS Daily Summary

Daily Weather History Graph

Daily Weather History Graph

Search for Another Location

Airport or City:

Trip Planner

Search our weather history database for the weather conditions in past years. The results will help you decide how hot, cold, wet, or windy it might be!

Date:

Astronomy

Jan. 02, 2013 Rise Set
Actual Time 7:28 AM EST 5:20 PM EST
Civil Twilight 7:00 AM EST 5:48 PM EST
Nautical Twilight 6:29 AM EST 6:20 PM EST
Astronomical Twilight 5:58 AM EST 6:50 PM EST
Moon 10:37 PM EST (1/2) 10:22 AM EST (1/2)
Length of Visible Light 10h 48m
Length of Day
9h 52m
Waning Gibbous, 75% of the Moon is Illuminated
Jan 2
Waning Gibbous
Jan 4
Last Quarter
Jan 11
New
Jan 18
First Quarter
Jan 26
Full

Hourly Weather History & Observations

Time (EST) Temp. Windchill Dew Point Humidity Pressure Visibility Wind Dir Wind Speed Gust Speed Precip Events Conditions
12:15 AM 51.3 °F - 50.5 °F 97% 29.94 in 1.8 mi Calm Calm - 0.01 in   Drizzle
12:35 AM 51.3 °F - 50.5 °F 97% 29.93 in 0.8 mi Calm Calm - 0.04 in Rain Rain
12:55 AM 51.3 °F - 50.5 °F 97% 29.93 in 1.2 mi Calm Calm - 0.06 in Rain Rain
1:15 AM 51.1 °F - 50.5 °F 98% 29.92 in 1.8 mi Calm Calm - 0.02 in Rain Rain
1:35 AM 51.1 °F - 50.5 °F 98% 29.92 in 1.2 mi Calm Calm - 0.05 in Rain Rain
1:55 AM 51.1 °F - 50.4 °F 97% 29.92 in 1.5 mi Calm Calm - 0.08 in Rain Rain
2:15 AM 51.1 °F - 50.4 °F 97% 29.93 in 2.0 mi Calm Calm - 0.02 in Rain Light Rain
2:35 AM 51.1 °F - 50.5 °F 98% 29.93 in 1.8 mi Calm Calm - 0.05 in Rain Rain
2:55 AM 51.1 °F - 50.4 °F 97% 29.96 in 1.5 mi Calm Calm - 0.07 in Rain Light Rain
3:15 AM 50.9 °F - 50.4 °F 98% 29.94 in 1.0 mi Calm Calm - 0.01 in Rain Light Rain
3:35 AM 50.9 °F - 50.2 °F 97% 29.90 in 0.5 mi ESE 5.8 mph - 0.02 in   Drizzle
3:55 AM 50.9 °F - 50.4 °F 98% 29.90 in 4.0 mi North 4.6 mph - 0.03 in Rain Light Rain
4:15 AM 51.1 °F - 50.5 °F 98% 29.92 in 4.0 mi Calm Calm - N/A Rain Rain
4:35 AM 51.1 °F - 50.5 °F 98% 29.93 in 3.0 mi Calm Calm - N/A Rain Light Rain
4:55 AM 51.1 °F - 50.4 °F 97% 29.92 in 1.8 mi Calm Calm - N/A Rain Light Rain
5:15 AM 50.9 °F - 50.4 °F 98% 29.93 in 1.5 mi Calm Calm - N/A   Drizzle
5:35 AM 50.9 °F - 50.4 °F 98% 29.95 in 1.5 mi NW 4.6 mph - 0.01 in   Heavy Drizzle
5:55 AM 50.9 °F - 50.4 °F 98% 29.95 in 1.5 mi Calm Calm - 0.02 in   Drizzle
6:15 AM 50.9 °F - 50.4 °F 98% 29.96 in 1.5 mi North 3.5 mph - 0.01 in   Drizzle
6:35 AM 50.9 °F - 50.4 °F 98% 29.98 in 2.5 mi North 3.5 mph - 0.01 in   Drizzle
7:15 AM 50.9 °F - 50.4 °F 98% 29.99 in 2.5 mi North 3.5 mph - N/A   Drizzle
7:35 AM 50.9 °F - 50.2 °F 97% 30.00 in 3.0 mi NNE 3.5 mph - N/A   Light Drizzle
7:55 AM 50.0 °F - 49.5 °F 98% 30.01 in 3.0 mi NNE 12.7 mph - 0.01 in Rain Light Rain
8:15 AM 48.6 °F - 47.8 °F 97% 30.01 in 10.0 mi NNE 15.0 mph 19.6 mph N/A   Overcast
8:35 AM 47.1 °F - 46.4 °F 97% 30.03 in 10.0 mi NNE 9.2 mph - N/A   Overcast
8:55 AM 47.3 °F - 45.5 °F 93% 30.03 in 10.0 mi NE 3.5 mph - N/A   Overcast
9:15 AM 47.3 °F - 44.8 °F 91% 30.04 in 10.0 mi NE 5.8 mph - N/A   Overcast
9:35 AM 47.7 °F - 45.1 °F 91% 30.05 in 10.0 mi NE 3.5 mph - N/A   Overcast
9:55 AM 48.0 °F - 45.5 °F 91% 30.07 in 10.0 mi North 4.6 mph - N/A   Overcast
10:15 AM 47.8 °F - 45.3 °F 91% 30.08 in 10.0 mi North 5.8 mph - N/A   Overcast
10:35 AM 48.2 °F - 45.7 °F 91% 30.09 in 10.0 mi North 9.2 mph - N/A   Overcast
10:55 AM 48.2 °F - 45.0 °F 89% 30.08 in 10.0 mi NNE 6.9 mph - N/A   Overcast
11:15 AM 48.4 °F - 43.9 °F 84% 30.10 in 10.0 mi NNE 9.2 mph - N/A   Overcast
11:35 AM 48.6 °F - 42.6 °F 80% 30.08 in 10.0 mi North 8.1 mph 16.1 mph N/A   Overcast
11:55 AM 48.6 °F - 42.1 °F 78% 30.08 in 10.0 mi North 6.9 mph - N/A   Mostly Cloudy
12:15 PM 48.7 °F - 41.0 °F 75% 30.06 in 10.0 mi North 11.5 mph - N/A   Mostly Cloudy
12:35 PM 48.7 °F - 40.6 °F 74% 30.07 in 10.0 mi NNE 6.9 mph - N/A   Mostly Cloudy
12:55 PM 49.1 °F - 40.8 °F 73% 30.06 in 10.0 mi North 4.6 mph - N/A   Overcast
1:15 PM 48.6 °F - 40.1 °F 73% 30.07 in 10.0 mi NNE 5.8 mph - N/A   Overcast
1:35 PM 48.6 °F - 39.9 °F 72% 30.06 in 10.0 mi NE 6.9 mph - N/A   Mostly Cloudy
1:55 PM 49.1 °F - 40.1 °F 71% 30.07 in 10.0 mi NNE 6.9 mph - N/A   Mostly Cloudy
2:15 PM 49.1 °F - 39.7 °F 70% 30.06 in 10.0 mi NNE 6.9 mph - N/A   Mostly Cloudy
2:35 PM 50.0 °F - 39.9 °F 68% 30.06 in 10.0 mi NNE 4.6 mph - N/A   Mostly Cloudy
2:55 PM 49.6 °F - 39.2 °F 67% 30.07 in 10.0 mi NE 3.5 mph - N/A   Overcast
3:15 PM 49.3 °F - 39.4 °F 69% 30.08 in 10.0 mi North 3.5 mph - N/A   Overcast
3:35 PM 49.1 °F - 39.2 °F 69% 30.08 in 10.0 mi North 3.5 mph - N/A   Mostly Cloudy
3:55 PM 49.1 °F - 39.2 °F 69% 30.09 in 10.0 mi Calm Calm - N/A   Scattered Clouds
4:15 PM 48.6 °F - 39.6 °F 71% 30.09 in 10.0 mi NE 3.5 mph - N/A   Scattered Clouds
4:35 PM 48.4 °F - 39.4 °F 71% 30.09 in 10.0 mi Calm Calm - N/A   Mostly Cloudy
4:55 PM 48.2 °F - 39.9 °F 73% 30.09 in 10.0 mi Calm Calm - N/A   Mostly Cloudy
5:15 PM 47.5 °F - 41.0 °F 78% 30.09 in 10.0 mi Calm Calm - N/A   Overcast
5:35 PM 47.3 °F - 40.5 °F 77% 30.11 in 10.0 mi Calm Calm - N/A   Mostly Cloudy
5:55 PM 47.3 °F - 40.5 °F 77% 30.12 in 10.0 mi Calm Calm - N/A   Mostly Cloudy
6:15 PM 46.4 °F - 42.3 °F 85% 30.11 in 10.0 mi Calm Calm - N/A   Overcast
6:35 PM 46.4 °F - 41.9 °F 84% 30.12 in 10.0 mi Calm Calm - N/A   Overcast
6:55 PM 46.6 °F - 41.7 °F 83% 30.13 in 10.0 mi Calm Calm - N/A   Overcast
7:15 PM 46.4 °F - 41.9 °F 84% 30.14 in 10.0 mi Calm Calm - N/A   Overcast
7:55 PM 46.2 °F - 42.1 °F 85% 30.13 in 10.0 mi Calm Calm - N/A   Overcast
8:15 PM 46.2 °F - 41.7 °F 84% 30.14 in 10.0 mi Calm Calm - N/A   Overcast
8:35 PM 46.0 °F - 42.1 °F 86% 30.14 in 10.0 mi Calm Calm - N/A   Overcast
8:55 PM 46.0 °F - 42.3 °F 87% 30.15 in 10.0 mi Calm Calm - N/A   Overcast
9:15 PM 45.5 °F - 42.3 °F 88% 30.15 in 10.0 mi Calm Calm - N/A   Overcast
9:35 PM 45.7 °F - 41.9 °F 87% 30.16 in 10.0 mi Calm Calm - N/A   Overcast
9:55 PM 45.9 °F - 41.2 °F 84% 30.17 in 10.0 mi Calm Calm - N/A   Overcast
10:15 PM 45.7 °F - 41.0 °F 84% 30.18 in 10.0 mi Calm Calm - N/A   Overcast
10:35 PM 45.5 °F 44.2 °F 40.5 °F 83% 30.17 in 10.0 mi ENE 3.5 mph - N/A   Overcast
10:55 PM 45.5 °F - 40.6 °F 83% 30.18 in 10.0 mi Calm Calm - N/A   Overcast
11:15 PM 45.1 °F - 40.5 °F 84% 30.18 in 10.0 mi Calm Calm - N/A   Overcast
11:35 PM 45.0 °F - 40.8 °F 85% 30.18 in 10.0 mi Calm Calm - N/A   Overcast
11:55 PM 44.8 °F - 40.6 °F 85% 30.16 in 10.0 mi Calm Calm - N/A   Overcast